Location: Newark
(85.1667°S, 168.5000°E)
Time: 03:53:15
(UTC+00:00)

N. Korean satellite - Visible Passes

Search period start: 21 August 2019 00:00
Search period end: 31 August 2019 00:00
Orbit: 457 x 507 km, 97.2° (Epoch: 20 August)

Date Brightness Start Highest point End Pass type
(mag) Time Alt. Az. Time Alt. Az. Time Alt. Az.
21 Aug 8.3 01:02:28 10° SSW 01:04:18 13° S 01:06:10 10° SE visible
21 Aug 8.2 02:36:58 10° S 02:39:07 15° SE 02:41:16 10° ESE visible
21 Aug 8.0 04:11:12 10° SSE 04:13:47 18° ESE 04:16:23 10° ENE visible
21 Aug 7.6 05:45:18 10° SSE 05:48:17 24° E 05:51:16 10° NE visible
21 Aug 7.2 07:19:17 10° SE 07:22:33 32° ENE 07:25:51 10° N visible
21 Aug 6.8 08:53:11 10° SE 08:56:37 43° NE 09:00:05 10° NNW visible
21 Aug 6.6 10:27:01 10° ESE 10:30:32 54° NNE 10:34:04 10° NW visible
21 Aug 6.5 12:00:48 10° E 12:04:20 60° N 12:07:55 10° WNW visible
21 Aug 6.5 13:34:36 10° ENE 13:38:08 57° NNW 13:41:42 10° W visible
21 Aug 6.7 15:08:31 10° NE 15:11:59 48° NW 15:15:30 10° WSW visible
21 Aug 7.0 16:42:38 10° N 16:45:59 37° WNW 16:49:22 10° SW visible
21 Aug 7.4 18:17:02 10° NNW 18:20:09 27° W 18:23:18 10° SSW visible
21 Aug 7.8 19:51:47 10° WNW 19:54:33 21° WSW 19:57:21 10° SSW visible
21 Aug 8.1 21:26:49 10° W 21:29:09 16° SW 21:31:30 10° S visible
21 Aug 8.3 23:01:57 10° SW 23:03:54 14° SSW 23:05:53 10° SSE visible
22 Aug 8.3 00:36:55 10° SSW 00:38:45 13° S 00:40:35 10° SE visible
22 Aug 8.3 02:11:31 10° S 02:13:35 14° SSE 02:15:39 10° ESE visible
22 Aug 8.1 03:45:49 10° S 03:48:18 17° SE 03:50:47 10° E visible
22 Aug 7.7 05:19:57 10° SSE 05:22:50 22° ESE 05:25:44 10° NE visible
22 Aug 7.3 06:53:57 10° SE 06:57:10 30° E 07:00:24 10° NNE visible
22 Aug 6.9 08:27:53 10° SE 08:31:17 40° ENE 08:34:44 10° NNW visible
22 Aug 6.6 10:01:44 10° ESE 10:05:14 51° NE 10:08:47 10° NW visible
22 Aug 6.5 11:35:32 10° E 11:39:04 59° NNE 11:42:39 10° WNW visible
22 Aug 6.5 13:09:19 10° ENE 13:12:51 59° NNW 13:16:26 10° W visible
22 Aug 6.6 14:43:11 10° NE 14:46:41 51° NW 14:50:13 10° WSW visible
22 Aug 6.9 16:17:14 10° NNE 16:20:38 40° WNW 16:24:04 10° SW visible
22 Aug 7.3 17:51:34 10° NNW 17:54:46 30° W 17:57:59 10° SW visible
22 Aug 7.7 19:26:13 10° NW 19:29:06 22° WSW 19:32:00 10° SSW visible
22 Aug 8.0 21:01:11 10° W 21:03:38 17° SW 21:06:07 10° S visible
22 Aug 8.3 22:36:19 10° WSW 22:38:22 14° SSW 22:40:26 10° S visible
23 Aug 8.3 00:11:21 10° SW 00:13:11 13° S 00:15:03 10° SSE visible
23 Aug 8.3 01:46:03 10° SSW 01:48:02 14° SSE 01:50:01 10° SE visible
23 Aug 8.1 03:20:25 10° S 03:22:47 16° SE 03:25:10 10° E visible
23 Aug 7.8 04:54:35 10° SSE 04:57:22 21° ESE 05:00:12 10° ENE visible
23 Aug 7.5 06:28:38 10° SSE 06:31:46 28° E 06:34:56 10° NNE visible
23 Aug 7.0 08:02:34 10° SE 08:05:57 37° ENE 08:09:21 10° N visible
23 Aug 6.7 09:36:26 10° ESE 09:39:56 48° NE 09:43:28 10° NW visible
23 Aug 6.5 11:10:15 10° E 11:13:47 57° NNE 11:17:22 10° WNW visible
23 Aug 6.5 12:44:02 10° ENE 12:47:34 60° N 12:51:10 10° W visible
23 Aug 6.6 14:17:52 10° NE 14:21:23 54° NNW 14:24:57 10° WSW visible
23 Aug 6.8 15:51:52 10° NNE 15:55:18 43° NW 15:58:47 10° SW visible
23 Aug 7.2 17:26:07 10° N 17:29:22 32° WNW 17:32:40 10° SW visible
23 Aug 7.6 19:00:40 10° NW 19:03:39 24° W 19:06:39 10° SSW visible
23 Aug 8.0 20:35:34 10° WNW 20:38:09 18° WSW 20:40:45 10° SSW visible
23 Aug 8.2 22:10:40 10° WSW 22:12:50 15° SSW 22:15:00 10° S visible
23 Aug 8.3 23:45:45 10° SW 23:47:38 14° S 23:49:31 10° SSE visible
24 Aug 8.3 01:20:34 10° SSW 01:22:29 14° SSE 01:24:24 10° SE visible
24 Aug 8.2 02:55:01 10° S 02:57:16 16° SE 02:59:32 10° ESE visible
24 Aug 7.9 04:29:13 10° SSE 04:31:54 19° ESE 04:34:37 10° ENE visible
24 Aug 7.6 06:03:17 10° SSE 06:06:21 26° E 06:09:27 10° NE visible
24 Aug 7.2 07:37:15 10° SE 07:40:35 34° ENE 07:43:57 10° N visible
24 Aug 6.8 09:11:09 10° ESE 09:14:37 45° NE 09:18:08 10° NNW visible
24 Aug 6.6 10:44:58 10° ESE 10:48:30 56° NNE 10:52:06 10° NW visible
24 Aug 6.5 12:18:45 10° E 12:22:19 60° N 12:25:54 10° W visible
24 Aug 6.6 13:52:33 10° ENE 13:56:06 56° NNW 13:59:41 10° WSW visible
24 Aug 6.8 15:26:30 10° NNE 15:29:59 46° NW 15:33:30 10° WSW visible
24 Aug 7.1 17:00:41 10° N 17:04:00 35° WNW 17:07:22 10° SW visible
24 Aug 7.5 18:35:09 10° NNW 18:38:14 26° W 18:41:19 10° SSW visible
24 Aug 7.9 20:09:57 10° WNW 20:12:39 20° WSW 20:15:23 10° SSW visible
24 Aug 8.2 21:45:01 10° W 21:47:18 16° SW 21:49:36 10° S visible
24 Aug 8.3 23:20:08 10° SW 23:22:04 14° SSW 23:24:02 10° SSE visible
25 Aug 8.3 00:55:02 10° SSW 00:56:55 14° S 00:58:49 10° SE visible
25 Aug 8.2 02:29:35 10° S 02:31:44 15° SSE 02:33:54 10° ESE visible
25 Aug 8.0 04:03:50 10° S 04:06:25 18° ESE 04:09:01 10° ENE visible
25 Aug 7.7 05:37:56 10° SSE 05:40:55 24° E 05:43:56 10° NE visible
25 Aug 7.3 07:11:56 10° SE 07:15:13 32° ENE 07:18:31 10° NNE visible
25 Aug 6.9 08:45:51 10° SE 08:49:18 42° NE 08:52:47 10° NNW visible
25 Aug 6.6 10:19:40 10° ESE 10:23:13 53° NNE 10:26:48 10° NW visible
25 Aug 6.5 11:53:28 10° E 11:57:01 60° N 12:00:38 10° WNW visible
25 Aug 6.5 13:27:16 10° ENE 13:30:49 58° NNW 13:34:25 10° W visible
25 Aug 6.7 15:01:10 10° NE 15:04:40 49° NW 15:08:13 10° WSW visible
25 Aug 7.0 16:35:16 10° N 16:38:38 38° WNW 16:42:04 10° SW visible
25 Aug 7.4 18:09:39 10° NNW 18:12:49 28° W 18:16:00 10° SSW visible
25 Aug 7.8 19:44:22 10° WNW 19:47:11 21° WSW 19:50:02 10° SSW visible
25 Aug 8.1 21:19:22 10° W 21:21:46 17° SW 21:24:12 10° S visible
25 Aug 8.3 22:54:30 10° WSW 22:56:32 14° SSW 22:58:33 10° SSE visible
26 Aug 8.3 02:04:07 10° S 02:06:11 14° SSE 02:08:16 10° ESE visible
26 Aug 8.1 03:38:26 10° S 03:40:55 17° SE 03:43:25 10° E visible
26 Aug 7.8 05:12:35 10° SSE 05:15:28 22° ESE 05:18:24 10° NE visible
26 Aug 7.4 06:46:36 10° SE 06:49:49 29° E 06:53:04 10° NNE visible
26 Aug 7.0 08:20:32 10° SE 08:23:57 40° ENE 08:27:25 10° NNW visible
26 Aug 6.7 09:54:23 10° ESE 09:57:54 51° NE 10:01:29 10° NW visible
26 Aug 6.5 11:28:11 10° E 11:31:45 59° NNE 11:35:22 10° WNW visible
26 Aug 6.5 13:01:59 10° ENE 13:05:32 59° N 13:09:08 10° W visible
26 Aug 6.6 14:35:50 10° NE 14:39:21 52° NNW 14:42:56 10° WSW visible
26 Aug 6.9 16:09:52 10° NNE 16:13:18 41° WNW 16:16:46 10° SW visible
26 Aug 7.3 17:44:10 10° NNW 17:47:24 31° W 17:50:41 10° SW visible
26 Aug 7.7 19:18:48 10° NW 19:21:44 23° WSW 19:24:41 10° SSW visible
26 Aug 8.0 20:53:44 10° W 20:56:16 18° SW 20:58:49 10° S visible
26 Aug 8.3 22:28:51 10° WSW 22:30:58 15° SSW 22:33:07 10° S visible
27 Aug 8.2 03:13:02 10° S 03:15:24 16° SE 03:17:47 10° E visible
27 Aug 7.9 04:47:13 10° SSE 04:50:00 21° ESE 04:52:50 10° ENE visible
27 Aug 7.5 06:21:16 10° SSE 06:24:24 27° E 06:27:35 10° NNE visible
27 Aug 7.1 07:55:13 10° SE 07:58:36 37° ENE 08:02:02 10° N visible
27 Aug 6.8 09:29:05 10° ESE 09:32:36 48° NE 09:36:10 10° NNW visible
27 Aug 6.6 11:02:54 10° E 11:06:28 57° NNE 11:10:05 10° WNW visible
27 Aug 6.5 12:36:41 10° ENE 12:40:16 60° N 12:43:53 10° W visible
27 Aug 6.6 14:10:31 10° NE 14:14:04 55° NNW 14:17:40 10° WSW visible
27 Aug 6.8 15:44:30 10° NNE 15:47:58 44° NW 15:51:29 10° SW visible
27 Aug 7.2 17:18:43 10° N 17:22:01 33° WNW 17:25:22 10° SW visible
27 Aug 7.6 18:53:15 10° NW 18:56:17 25° W 18:59:21 10° SSW visible
27 Aug 8.0 20:28:07 10° WNW 20:30:46 19° WSW 20:33:26 10° SSW visible
27 Aug 8.2 22:03:12 10° WSW 22:05:26 15° SW 22:07:41 10° S visible
28 Aug 8.0 04:21:50 10° SSE 04:24:32 19° ESE 04:27:15 10° ENE visible
28 Aug 7.6 05:55:55 10° SSE 05:58:59 25° E 06:02:06 10° NE visible
28 Aug 7.2 07:29:54 10° SE 07:33:14 34° ENE 07:36:37 10° N visible
28 Aug 6.8 09:03:47 10° ESE 09:07:17 45° NE 09:10:50 10° NNW visible
28 Aug 6.6 10:37:36 10° ESE 10:41:10 55° NNE 10:44:48 10° NW visible
28 Aug 6.5 12:11:23 10° E 12:14:58 60° N 12:18:37 10° W visible
28 Aug 6.6 13:45:12 10° ENE 13:48:46 57° NNW 13:52:23 10° W visible
28 Aug 6.8 15:19:08 10° NNE 15:22:38 47° NW 15:26:12 10° WSW visible
28 Aug 7.1 16:53:17 10° N 16:56:39 36° WNW 17:00:04 10° SW visible
28 Aug 7.5 18:27:44 10° NNW 18:30:51 27° W 18:34:01 10° SSW visible
28 Aug 7.9 20:02:30 10° WNW 20:05:16 20° WSW 20:08:05 10° SSW visible
28 Aug 8.2 21:37:33 10° W 21:39:54 16° SW 21:42:16 10° S visible
29 Aug 8.0 03:56:26 10° S 03:59:02 18° SE 04:01:38 10° E visible
29 Aug 7.7 05:30:33 10° SSE 05:33:33 24° ESE 05:36:34 10° NE visible
29 Aug 7.3 07:04:33 10° SE 07:07:52 31° ENE 07:11:11 10° NNE visible
29 Aug 6.9 08:38:29 10° SE 08:41:57 42° NE 08:45:28 10° NNW visible
29 Aug 6.7 10:12:19 10° ESE 10:15:52 53° NNE 10:19:29 10° NW visible
29 Aug 6.6 11:46:07 10° E 11:49:42 60° N 11:53:20 10° WNW visible
29 Aug 6.6 13:19:54 10° ENE 13:23:29 59° NNW 13:27:07 10° W visible
29 Aug 6.7 14:53:48 10° NE 14:57:19 50° NW 15:00:55 10° WSW visible
29 Aug 7.0 16:27:52 10° N 16:31:17 39° WNW 16:34:45 10° SW visible
29 Aug 7.4 18:02:14 10° NNW 18:05:26 29° W 18:08:42 10° SSW visible
29 Aug 7.8 19:36:55 10° NW 19:39:48 22° WSW 19:42:44 10° SSW visible
29 Aug 8.1 21:11:55 10° W 21:14:23 17° SW 21:16:52 10° S visible
30 Aug 7.8 05:05:11 10° SSE 05:08:06 22° ESE 05:11:02 10° NE visible
30 Aug 7.4 06:39:14 10° SSE 06:42:28 29° E 06:45:43 10° NNE visible
30 Aug 7.0 08:13:10 10° SE 08:16:36 39° ENE 08:20:06 10° N visible
30 Aug 6.7 09:47:01 10° ESE 09:50:34 50° NE 09:54:11 10° NW visible
30 Aug 6.6 11:20:50 10° E 11:24:25 59° NNE 11:28:04 10° WNW visible
30 Aug 6.6 12:54:36 10° ENE 12:58:12 60° N 13:01:51 10° W visible
30 Aug 6.7 14:28:28 10° NE 14:32:01 53° NNW 14:35:38 10° WSW visible
30 Aug 6.9 16:02:28 10° NNE 16:05:56 42° NW 16:09:28 10° SW visible
30 Aug 7.3 17:36:45 10° NNW 17:40:02 32° WNW 17:43:22 10° SW visible
30 Aug 7.7 19:11:22 10° NW 19:14:21 24° WSW 19:17:23 10° SSW visible
30 Aug 8.0 20:46:16 10° W 20:48:51 18° SW 20:51:29 10° S visible
